N188SF MYNN-MYCI

Flight info

Callsign N188SF
Flight time 1h 18m
Altitude 9000
Route BOSAR A555 GEROT
Aircraft C208/L-SDFGR/C

Departure

Time 2026-05-06 01:00
Airport Lynden Pindling International Airport (MYNN)

Arrival

Time 2026-05-06 02:18
Airport Colonel Hill Airport (MYCI)
Time Latitude Longitude Altitude Speed Heading
2026-05-06 00:44 25.04471 -77.46098 19 ft 0 kts 73°
2026-05-06 00:52 25.04486 -77.46088 19 ft 6 kts 336°
2026-05-06 00:52 25.04463 -77.46131 19 ft 10 kts 246°
2026-05-06 00:52 25.04443 -77.46219 19 ft 10 kts 258°
2026-05-06 00:52 25.04431 -77.46258 19 ft 3 kts 243°
2026-05-06 00:53 25.04425 -77.46270 19 ft 4 kts 244°
2026-05-06 00:53 25.04407 -77.46339 19 ft 14 kts 273°
2026-05-06 00:53 25.04448 -77.46444 19 ft 15 kts 285°
2026-05-06 00:53 25.04484 -77.46534 19 ft 11 kts 310°
2026-05-06 00:54 25.04530 -77.46593 20 ft 10 kts 311°
2026-05-06 00:54 25.04594 -77.46661 20 ft 15 kts 320°
2026-05-06 00:54 25.04681 -77.46749 20 ft 18 kts 317°
2026-05-06 00:54 25.04753 -77.46823 20 ft 11 kts 316°
2026-05-06 00:55 25.04793 -77.46868 20 ft 7 kts 303°
2026-05-06 00:55 25.04805 -77.46946 21 ft 13 kts 253°
2026-05-06 00:55 25.04797 -77.46974 21 ft 0 kts 252°
2026-05-06 00:56 25.04795 -77.46979 22 ft 0 kts 253°
2026-05-06 00:57 25.04794 -77.46985 22 ft 4 kts 255°
2026-05-06 00:57 25.04773 -77.47057 25 ft 15 kts 238°
2026-05-06 00:58 25.04720 -77.47058 23 ft 0 kts 132°
2026-05-06 00:59 25.04640 -77.46968 24 ft 41 kts 135°
2026-05-06 00:59 25.04321 -77.46606 45 ft 84 kts 133°
2026-05-06 00:59 25.03875 -77.46096 209 ft 97 kts 137°
2026-05-06 00:59 25.03379 -77.45572 480 ft 100 kts 139°
2026-05-06 01:00 25.02866 -77.45042 775 ft 101 kts 142°
2026-05-06 01:00 25.02332 -77.44541 1074 ft 99 kts 143°
2026-05-06 01:00 25.01796 -77.44054 1286 ft 100 kts 140°
2026-05-06 01:00 25.01269 -77.43506 1488 ft 108 kts 140°
2026-05-06 01:01 25.00706 -77.42938 1740 ft 112 kts 140°
2026-05-06 01:01 25.00124 -77.42346 1988 ft 114 kts 139°
2026-05-06 01:01 24.99529 -77.41753 2242 ft 118 kts 140°
2026-05-06 01:01 24.98908 -77.41155 2507 ft 120 kts 141°
2026-05-06 01:02 24.98269 -77.40542 2763 ft 123 kts 140°
2026-05-06 01:02 24.97839 -77.40129 2935 ft 124 kts 140°
2026-05-06 01:02 24.97198 -77.39514 3243 ft 121 kts 140°
2026-05-06 01:02 24.96568 -77.38908 3535 ft 120 kts 140°
2026-05-06 01:03 24.95941 -77.38303 3828 ft 119 kts 140°
2026-05-06 01:03 24.95328 -77.37705 4116 ft 118 kts 140°
2026-05-06 01:03 24.94720 -77.37104 4411 ft 117 kts 140°
2026-05-06 01:03 24.94121 -77.36505 4702 ft 116 kts 140°
2026-05-06 01:04 24.93532 -77.35908 4992 ft 114 kts 140°
2026-05-06 01:04 24.92952 -77.35315 5281 ft 113 kts 140°
2026-05-06 01:04 24.92379 -77.34723 5570 ft 112 kts 140°
2026-05-06 01:04 24.91819 -77.34132 5863 ft 111 kts 140°
2026-05-06 01:05 24.91309 -77.33503 6143 ft 111 kts 124°
2026-05-06 01:05 24.90934 -77.32763 6407 ft 111 kts 124°
2026-05-06 01:05 24.90520 -77.32032 6660 ft 114 kts 127°
2026-05-06 01:05 24.90089 -77.31290 6921 ft 116 kts 127°
2026-05-06 01:06 24.89654 -77.30532 7170 ft 118 kts 126°
2026-05-06 01:06 24.89222 -77.29771 7424 ft 119 kts 126°
2026-05-06 01:06 24.88777 -77.28991 7679 ft 121 kts 126°
2026-05-06 01:06 24.88328 -77.28197 7933 ft 123 kts 126°
2026-05-06 01:07 24.87873 -77.27395 8184 ft 124 kts 126°
2026-05-06 01:07 24.87413 -77.26586 8442 ft 125 kts 126°
2026-05-06 01:07 24.86951 -77.25772 8696 ft 126 kts 126°
2026-05-06 01:07 24.86485 -77.24953 8948 ft 127 kts 126°
2026-05-06 01:08 24.85985 -77.24079 9015 ft 144 kts 126°
2026-05-06 01:08 24.85416 -77.23091 9022 ft 160 kts 126°
2026-05-06 01:08 24.84801 -77.22017 9023 ft 171 kts 125°
2026-05-06 01:08 24.84156 -77.20887 9011 ft 177 kts 125°
2026-05-06 01:09 24.83497 -77.19727 9007 ft 180 kts 125°
2026-05-06 01:09 24.82832 -77.18552 9010 ft 182 kts 125°
2026-05-06 01:09 24.82160 -77.17369 9005 ft 182 kts 125°
2026-05-06 01:09 24.81492 -77.16190 9004 ft 182 kts 125°
2026-05-06 01:10 24.80822 -77.15012 9005 ft 182 kts 125°
2026-05-06 01:10 24.80151 -77.13830 9010 ft 181 kts 125°
2026-05-06 01:10 24.79483 -77.12655 9014 ft 181 kts 125°
2026-05-06 01:10 24.78814 -77.11480 9011 ft 181 kts 125°
2026-05-06 01:11 24.78144 -77.10303 9014 ft 181 kts 125°
2026-05-06 01:11 24.77474 -77.09128 9005 ft 181 kts 125°
2026-05-06 01:11 24.76804 -77.07950 9004 ft 181 kts 125°
2026-05-06 01:11 24.76134 -77.06775 9012 ft 181 kts 125°
2026-05-06 01:12 24.75465 -77.05601 9013 ft 181 kts 125°
2026-05-06 01:12 24.74794 -77.04426 9004 ft 181 kts 125°
2026-05-06 01:12 24.74125 -77.03252 9004 ft 181 kts 125°
2026-05-06 01:12 24.73456 -77.02080 9009 ft 181 kts 125°
2026-05-06 01:13 24.72783 -77.00904 9011 ft 181 kts 125°
2026-05-06 01:13 24.72112 -76.99731 9004 ft 181 kts 125°
2026-05-06 01:13 24.71441 -76.98558 9004 ft 181 kts 125°
2026-05-06 01:13 24.70771 -76.97384 9004 ft 181 kts 125°
2026-05-06 01:14 24.69430 -76.95043 9004 ft 181 kts 125°
2026-05-06 01:14 24.68770 -76.93888 9004 ft 181 kts 125°
2026-05-06 01:14 24.68100 -76.92716 9007 ft 180 kts 125°
2026-05-06 01:15 24.67433 -76.91549 9003 ft 180 kts 125°
2026-05-06 01:15 24.66768 -76.90384 9003 ft 180 kts 125°
2026-05-06 01:15 24.66101 -76.89217 9002 ft 180 kts 125°
2026-05-06 01:15 24.65433 -76.88049 9002 ft 180 kts 125°
2026-05-06 01:16 24.64766 -76.86883 9002 ft 181 kts 125°
2026-05-06 01:16 24.64098 -76.85716 9003 ft 180 kts 125°
2026-05-06 01:16 24.63428 -76.84550 9003 ft 180 kts 126°
2026-05-06 01:16 24.62722 -76.83414 9003 ft 180 kts 128°
2026-05-06 01:17 24.61986 -76.82304 9018 ft 179 kts 129°
2026-05-06 01:17 24.61259 -76.81221 9124 ft 173 kts 129°
2026-05-06 01:17 24.60554 -76.80168 9236 ft 170 kts 130°
2026-05-06 01:17 24.59864 -76.79132 9356 ft 167 kts 129°
2026-05-06 01:18 24.59185 -76.78106 9473 ft 165 kts 129°
2026-05-06 01:18 24.58513 -76.77090 9591 ft 164 kts 129°
2026-05-06 01:18 24.57847 -76.76078 9710 ft 163 kts 129°
2026-05-06 01:18 24.57183 -76.75069 9831 ft 163 kts 130°
2026-05-06 01:19 24.56520 -76.74063 9952 ft 163 kts 130°
2026-05-06 01:19 24.55860 -76.73056 10075 ft 162 kts 130°
2026-05-06 01:19 24.55197 -76.72048 10197 ft 162 kts 130°
2026-05-06 01:19 24.54538 -76.71042 10319 ft 162 kts 130°
2026-05-06 01:20 24.53878 -76.70036 10442 ft 163 kts 130°
2026-05-06 01:20 24.53216 -76.69030 10566 ft 162 kts 130°
2026-05-06 01:20 24.52557 -76.68025 10687 ft 162 kts 130°
2026-05-06 01:20 24.51894 -76.67019 10812 ft 162 kts 130°
2026-05-06 01:21 24.51232 -76.66013 10928 ft 163 kts 130°
2026-05-06 01:21 24.50566 -76.65004 11014 ft 166 kts 130°
2026-05-06 01:21 24.49872 -76.63957 11023 ft 172 kts 130°
2026-05-06 01:21 24.49159 -76.62880 11029 ft 177 kts 130°
2026-05-06 01:22 24.48430 -76.61777 11027 ft 180 kts 130°
2026-05-06 01:22 24.47691 -76.60658 11026 ft 182 kts 130°
2026-05-06 01:22 24.46946 -76.59528 11029 ft 183 kts 130°
2026-05-06 01:22 24.46195 -76.58389 11025 ft 185 kts 130°
2026-05-06 01:23 24.45444 -76.57247 11025 ft 185 kts 130°
2026-05-06 01:23 24.44690 -76.56102 11029 ft 186 kts 130°
2026-05-06 01:23 24.43934 -76.54952 11027 ft 186 kts 130°
2026-05-06 01:23 24.43174 -76.53800 11025 ft 186 kts 130°
2026-05-06 01:24 24.42416 -76.52651 11027 ft 186 kts 130°
2026-05-06 01:24 24.41657 -76.51500 11027 ft 186 kts 130°
2026-05-06 01:24 24.40898 -76.50348 11027 ft 186 kts 130°
2026-05-06 01:24 24.40139 -76.49199 11027 ft 186 kts 130°
2026-05-06 01:25 24.39380 -76.48050 11027 ft 186 kts 130°
2026-05-06 01:25 24.38620 -76.46899 11028 ft 186 kts 130°
2026-05-06 01:25 24.37860 -76.45749 11028 ft 186 kts 130°
2026-05-06 01:25 24.37109 -76.44613 11027 ft 186 kts 130°
2026-05-06 01:26 24.36350 -76.43464 11027 ft 186 kts 130°
2026-05-06 01:26 24.35590 -76.42313 11027 ft 186 kts 130°
2026-05-06 01:26 24.34829 -76.41162 11027 ft 186 kts 130°
2026-05-06 01:26 24.34066 -76.40010 11027 ft 186 kts 130°
2026-05-06 01:27 24.33306 -76.38862 11027 ft 186 kts 130°
2026-05-06 01:27 24.32546 -76.37713 11028 ft 186 kts 130°
2026-05-06 01:27 24.31787 -76.36567 11028 ft 186 kts 130°
2026-05-06 01:27 24.31028 -76.35421 11028 ft 186 kts 130°
2026-05-06 01:28 24.30271 -76.34276 11028 ft 186 kts 130°
2026-05-06 01:28 24.29512 -76.33130 11027 ft 186 kts 130°
2026-05-06 01:28 24.28754 -76.31985 11027 ft 186 kts 130°
2026-05-06 01:28 24.27996 -76.30842 11027 ft 185 kts 130°
2026-05-06 01:29 24.27237 -76.29697 11027 ft 185 kts 130°
2026-05-06 01:29 24.26480 -76.28557 11027 ft 185 kts 130°
2026-05-06 01:29 24.25724 -76.27418 11027 ft 185 kts 130°
2026-05-06 01:29 24.24966 -76.26276 11026 ft 185 kts 130°
2026-05-06 01:30 24.24209 -76.25135 11026 ft 185 kts 130°
2026-05-06 01:30 24.23453 -76.23994 11026 ft 185 kts 130°
2026-05-06 01:30 24.22694 -76.22851 11027 ft 186 kts 130°
2026-05-06 01:30 24.21934 -76.21705 11027 ft 185 kts 130°
2026-05-06 01:31 24.21176 -76.20562 11028 ft 186 kts 130°
2026-05-06 01:31 24.20418 -76.19420 11028 ft 186 kts 130°
2026-05-06 01:31 24.19658 -76.18275 11028 ft 186 kts 130°
2026-05-06 01:31 24.18897 -76.17132 11028 ft 186 kts 130°
2026-05-06 01:32 24.18138 -76.15990 11028 ft 186 kts 130°
2026-05-06 01:32 24.17379 -76.14848 11028 ft 186 kts 130°
2026-05-06 01:32 24.16618 -76.13704 11028 ft 186 kts 130°
2026-05-06 01:32 24.15859 -76.12561 11029 ft 186 kts 130°
2026-05-06 01:33 24.15098 -76.11418 11029 ft 186 kts 130°
2026-05-06 01:33 24.14348 -76.10291 11029 ft 186 kts 130°
2026-05-06 01:33 24.13589 -76.09149 11029 ft 186 kts 130°
2026-05-06 01:33 24.12827 -76.08006 11028 ft 186 kts 130°
2026-05-06 01:34 24.12067 -76.06864 11029 ft 186 kts 130°
2026-05-06 01:34 24.11306 -76.05722 11029 ft 186 kts 130°
2026-05-06 01:34 24.10544 -76.04578 11030 ft 186 kts 130°
2026-05-06 01:34 24.09782 -76.03434 11030 ft 186 kts 130°
2026-05-06 01:35 24.09011 -76.02278 11030 ft 186 kts 130°
2026-05-06 01:35 24.08257 -76.01151 11030 ft 186 kts 130°
2026-05-06 01:35 24.07496 -76.00008 11030 ft 186 kts 130°
2026-05-06 01:35 24.06735 -75.98868 11029 ft 186 kts 130°
2026-05-06 01:36 24.05973 -75.97726 11029 ft 186 kts 130°
2026-05-06 01:36 24.05211 -75.96583 11030 ft 186 kts 130°
2026-05-06 01:36 24.04451 -75.95443 11029 ft 186 kts 130°
2026-05-06 01:36 24.03682 -75.94313 11029 ft 185 kts 131°
2026-05-06 01:37 24.02888 -75.93205 11029 ft 185 kts 133°
2026-05-06 01:37 24.02084 -75.92104 11029 ft 185 kts 133°
2026-05-06 01:37 24.01279 -75.91004 11029 ft 185 kts 133°
2026-05-06 01:37 24.00477 -75.89905 11029 ft 185 kts 133°
2026-05-06 01:38 23.99678 -75.88805 11029 ft 185 kts 132°
2026-05-06 01:38 23.98880 -75.87702 11030 ft 185 kts 132°
2026-05-06 01:38 23.98083 -75.86601 11032 ft 185 kts 132°
2026-05-06 01:38 23.97287 -75.85500 11033 ft 185 kts 132°
2026-05-06 01:39 23.96490 -75.84397 11031 ft 185 kts 132°
2026-05-06 01:39 23.95693 -75.83294 11031 ft 185 kts 132°
2026-05-06 01:39 23.94896 -75.82192 11032 ft 185 kts 132°
2026-05-06 01:39 23.94100 -75.81090 11033 ft 185 kts 132°
2026-05-06 01:40 23.93301 -75.79986 11032 ft 185 kts 132°
2026-05-06 01:40 23.92503 -75.78881 11031 ft 185 kts 132°
2026-05-06 01:40 23.91706 -75.77777 11030 ft 186 kts 132°
2026-05-06 01:40 23.90906 -75.76671 11030 ft 185 kts 132°
2026-05-06 01:41 23.90106 -75.75565 11030 ft 185 kts 132°
2026-05-06 01:41 23.89307 -75.74459 11031 ft 185 kts 132°
2026-05-06 01:41 23.88508 -75.73355 11032 ft 185 kts 132°
2026-05-06 01:41 23.87710 -75.72251 11033 ft 185 kts 132°
2026-05-06 01:42 23.86912 -75.71149 11031 ft 185 kts 132°
2026-05-06 01:42 23.86116 -75.70048 11031 ft 185 kts 132°
2026-05-06 01:42 23.85315 -75.68947 11033 ft 185 kts 132°
2026-05-06 01:42 23.84518 -75.67847 11034 ft 185 kts 132°
2026-05-06 01:43 23.83720 -75.66744 11033 ft 185 kts 132°
2026-05-06 01:43 23.82925 -75.65645 11033 ft 184 kts 132°
2026-05-06 01:43 23.82130 -75.64547 11034 ft 184 kts 132°
2026-05-06 01:43 23.81335 -75.63450 11035 ft 184 kts 132°
2026-05-06 01:44 23.80549 -75.62366 11033 ft 184 kts 132°
2026-05-06 01:44 23.79744 -75.61255 11032 ft 184 kts 132°
2026-05-06 01:44 23.78959 -75.60173 11034 ft 184 kts 132°
2026-05-06 01:44 23.78162 -75.59076 11034 ft 184 kts 132°
2026-05-06 01:45 23.77366 -75.57979 11033 ft 185 kts 132°
2026-05-06 01:45 23.76569 -75.56880 11034 ft 184 kts 132°
2026-05-06 01:45 23.75772 -75.55785 11035 ft 184 kts 132°
2026-05-06 01:45 23.74975 -75.54687 11036 ft 184 kts 132°
2026-05-06 01:46 23.74180 -75.53591 11033 ft 184 kts 132°
2026-05-06 01:46 23.73384 -75.52494 11033 ft 184 kts 132°
2026-05-06 01:46 23.72588 -75.51398 11034 ft 184 kts 132°
2026-05-06 01:46 23.71791 -75.50303 11035 ft 184 kts 132°
2026-05-06 01:47 23.70994 -75.49208 11034 ft 185 kts 132°
2026-05-06 01:47 23.70198 -75.48112 11034 ft 184 kts 132°
2026-05-06 01:47 23.69400 -75.47016 11035 ft 184 kts 132°
2026-05-06 01:47 23.68603 -75.45921 11035 ft 184 kts 132°
2026-05-06 01:48 23.67809 -75.44827 11034 ft 184 kts 132°
2026-05-06 01:48 23.67014 -75.43735 11033 ft 184 kts 132°
2026-05-06 01:48 23.66217 -75.42641 11032 ft 184 kts 132°
2026-05-06 01:48 23.65423 -75.41551 11032 ft 184 kts 132°
2026-05-06 01:49 23.64629 -75.40461 11032 ft 184 kts 132°
2026-05-06 01:49 23.63835 -75.39370 11033 ft 184 kts 132°
2026-05-06 01:49 23.63042 -75.38279 11035 ft 184 kts 132°
2026-05-06 01:49 23.62247 -75.37188 11036 ft 184 kts 132°
2026-05-06 01:50 23.61720 -75.36466 11035 ft 184 kts 132°
2026-05-06 01:50 23.60925 -75.35375 11033 ft 184 kts 132°
2026-05-06 01:50 23.60129 -75.34286 11035 ft 184 kts 132°
2026-05-06 01:50 23.59335 -75.33197 11035 ft 184 kts 132°
2026-05-06 01:51 23.58485 -75.32037 11034 ft 184 kts 132°
2026-05-06 01:51 23.57690 -75.30949 11036 ft 184 kts 132°
2026-05-06 01:51 23.56893 -75.29854 11033 ft 184 kts 132°
2026-05-06 01:51 23.56099 -75.28762 11034 ft 184 kts 132°
2026-05-06 01:52 23.55307 -75.27669 11032 ft 184 kts 132°
2026-05-06 01:52 23.54513 -75.26578 11031 ft 184 kts 131°
2026-05-06 01:52 23.53719 -75.25490 11033 ft 183 kts 132°
2026-05-06 01:52 23.52921 -75.24405 11033 ft 183 kts 132°
2026-05-06 01:53 23.52126 -75.23318 11033 ft 183 kts 132°
2026-05-06 01:53 23.51334 -75.22233 11032 ft 183 kts 132°
2026-05-06 01:53 23.50551 -75.21162 11032 ft 183 kts 132°
2026-05-06 01:53 23.49757 -75.20078 11035 ft 183 kts 132°
2026-05-06 01:54 23.48956 -75.18977 11033 ft 183 kts 131°
2026-05-06 01:54 23.48161 -75.17893 11032 ft 183 kts 132°
2026-05-06 01:54 23.47365 -75.16809 11034 ft 183 kts 132°
2026-05-06 01:54 23.46571 -75.15726 11035 ft 183 kts 132°
2026-05-06 01:55 23.45788 -75.14656 11033 ft 183 kts 132°
2026-05-06 01:55 23.44993 -75.13572 11032 ft 183 kts 132°
2026-05-06 01:55 23.44198 -75.12487 11034 ft 183 kts 132°
2026-05-06 01:55 23.43406 -75.11405 11034 ft 183 kts 132°
2026-05-06 01:56 23.42612 -75.10321 11033 ft 183 kts 132°
2026-05-06 01:56 23.41819 -75.09239 11032 ft 183 kts 132°
2026-05-06 01:56 23.41024 -75.08154 11032 ft 183 kts 132°
2026-05-06 01:56 23.40229 -75.07070 11031 ft 183 kts 132°
2026-05-06 01:57 23.39434 -75.05987 11031 ft 183 kts 132°
2026-05-06 01:57 23.38640 -75.04903 11032 ft 183 kts 132°
2026-05-06 01:57 23.37843 -75.03817 11032 ft 183 kts 132°
2026-05-06 01:57 23.37049 -75.02734 11032 ft 183 kts 132°
2026-05-06 01:58 23.36255 -75.01653 11031 ft 183 kts 132°
2026-05-06 01:58 23.35460 -75.00568 11032 ft 183 kts 131°
2026-05-06 01:58 23.34668 -74.99491 11034 ft 183 kts 131°
2026-05-06 01:58 23.33875 -74.98409 11034 ft 182 kts 131°
2026-05-06 01:59 23.33087 -74.97333 11034 ft 182 kts 131°
2026-05-06 01:59 23.32294 -74.96254 11033 ft 182 kts 132°
2026-05-06 01:59 23.31503 -74.95177 11033 ft 182 kts 132°
2026-05-06 01:59 23.30708 -74.94098 10983 ft 185 kts 132°
2026-05-06 02:00 23.29883 -74.92982 10816 ft 192 kts 132°
2026-05-06 02:00 23.29038 -74.91835 10648 ft 196 kts 131°
2026-05-06 02:00 23.28184 -74.90672 10481 ft 198 kts 131°
2026-05-06 02:00 23.27322 -74.89500 10309 ft 199 kts 131°
2026-05-06 02:01 23.26458 -74.88323 10138 ft 199 kts 131°
2026-05-06 02:01 23.25596 -74.87147 9970 ft 199 kts 131°
2026-05-06 02:01 23.24736 -74.85972 9800 ft 198 kts 131°
2026-05-06 02:01 23.23878 -74.84801 9624 ft 198 kts 131°
2026-05-06 02:02 23.23019 -74.83632 9451 ft 197 kts 131°
2026-05-06 02:02 23.22162 -74.82468 9276 ft 197 kts 131°
2026-05-06 02:02 23.21308 -74.81307 9098 ft 196 kts 130°
2026-05-06 02:02 23.20456 -74.80151 8930 ft 196 kts 130°
2026-05-06 02:03 23.19607 -74.78998 8752 ft 196 kts 130°
2026-05-06 02:03 23.18757 -74.77846 8567 ft 195 kts 130°
2026-05-06 02:03 23.17911 -74.76698 8404 ft 194 kts 130°
2026-05-06 02:03 23.17080 -74.75569 8233 ft 194 kts 130°
2026-05-06 02:04 23.16238 -74.74427 8053 ft 193 kts 130°
2026-05-06 02:04 23.15387 -74.73274 7877 ft 193 kts 130°
2026-05-06 02:04 23.14559 -74.72155 7704 ft 193 kts 130°
2026-05-06 02:04 23.13724 -74.71021 7516 ft 192 kts 130°
2026-05-06 02:05 23.12890 -74.69890 7357 ft 191 kts 130°
2026-05-06 02:05 23.12058 -74.68763 7193 ft 192 kts 130°
2026-05-06 02:05 23.11223 -74.67637 7019 ft 191 kts 130°
2026-05-06 02:05 23.10395 -74.66512 6844 ft 190 kts 130°
2026-05-06 02:06 23.09568 -74.65391 6668 ft 190 kts 130°
2026-05-06 02:06 23.08743 -74.64274 6493 ft 189 kts 130°
2026-05-06 02:06 23.07920 -74.63161 6317 ft 189 kts 130°
2026-05-06 02:06 23.07098 -74.62050 6144 ft 188 kts 130°
2026-05-06 02:07 23.06279 -74.60939 5972 ft 188 kts 129°
2026-05-06 02:07 23.05459 -74.59832 5796 ft 188 kts 129°
2026-05-06 02:07 23.04641 -74.58725 5623 ft 187 kts 129°
2026-05-06 02:07 23.03827 -74.57625 5450 ft 187 kts 129°
2026-05-06 02:08 23.03015 -74.56526 5273 ft 186 kts 129°
2026-05-06 02:08 23.02205 -74.55431 5097 ft 186 kts 129°
2026-05-06 02:08 23.01395 -74.54340 4924 ft 185 kts 129°
2026-05-06 02:08 23.00587 -74.53250 4750 ft 185 kts 129°
2026-05-06 02:09 22.99782 -74.52162 4574 ft 185 kts 129°
2026-05-06 02:09 22.98978 -74.51077 4398 ft 185 kts 129°
2026-05-06 02:09 22.98187 -74.50012 4227 ft 183 kts 129°
2026-05-06 02:09 22.97391 -74.48937 4053 ft 183 kts 128°
2026-05-06 02:10 22.96596 -74.47862 3877 ft 182 kts 128°
2026-05-06 02:10 22.95806 -74.46793 3700 ft 182 kts 128°
2026-05-06 02:10 22.95015 -74.45727 3527 ft 181 kts 128°
2026-05-06 02:10 22.94226 -74.44665 3352 ft 181 kts 128°
2026-05-06 02:11 22.93437 -74.43603 3176 ft 181 kts 128°
2026-05-06 02:11 22.92649 -74.42547 3000 ft 180 kts 128°
2026-05-06 02:11 22.91868 -74.41494 2824 ft 179 kts 128°
2026-05-06 02:11 22.91086 -74.40444 2649 ft 179 kts 128°
2026-05-06 02:12 22.90306 -74.39397 2473 ft 179 kts 128°
2026-05-06 02:12 22.89515 -74.38360 2299 ft 179 kts 130°
2026-05-06 02:12 22.88656 -74.37389 2128 ft 178 kts 134°
2026-05-06 02:12 22.87782 -74.36446 1976 ft 176 kts 134°
2026-05-06 02:13 22.86911 -74.35507 1826 ft 177 kts 134°
2026-05-06 02:13 22.86045 -74.34576 1696 ft 175 kts 134°
2026-05-06 02:13 22.85182 -74.33651 1569 ft 174 kts 134°
2026-05-06 02:13 22.84321 -74.32730 1443 ft 174 kts 134°
2026-05-06 02:14 22.83460 -74.31811 1316 ft 174 kts 134°
2026-05-06 02:14 22.82605 -74.30895 1191 ft 172 kts 134°
2026-05-06 02:14 22.81749 -74.29985 1084 ft 172 kts 134°
2026-05-06 02:14 22.80894 -74.29075 1024 ft 170 kts 134°
2026-05-06 02:15 22.80058 -74.28188 1022 ft 166 kts 134°
2026-05-06 02:15 22.79230 -74.27313 1017 ft 166 kts 134°
2026-05-06 02:15 22.78408 -74.26445 1021 ft 164 kts 134°
2026-05-06 02:15 22.77598 -74.25586 1025 ft 162 kts 134°
2026-05-06 02:16 22.76776 -74.24723 1032 ft 166 kts 134°
2026-05-06 02:16 22.75949 -74.23852 1019 ft 162 kts 134°
2026-05-06 02:16 22.75225 -74.23055 992 ft 138 kts 126°
2026-05-06 02:16 22.74808 -74.22215 866 ft 120 kts 108°
2026-05-06 02:17 22.74597 -74.21414 767 ft 100 kts 97°
2026-05-06 02:17 22.74525 -74.20746 631 ft 82 kts 91°
2026-05-06 02:17 22.74490 -74.20140 458 ft 78 kts 89°
2026-05-06 02:17 22.74483 -74.19547 282 ft 79 kts 85°
2026-05-06 02:18 22.74506 -74.18951 108 ft 79 kts 84°
2026-05-06 02:18 22.74543 -74.18402 21 ft 60 kts 85°
2026-05-06 02:18 22.74558 -74.18098 19 ft 30 kts 87°
2026-05-06 02:18 22.74569 -74.17888 22 ft 23 kts 86°
2026-05-06 02:19 22.74575 -74.17767 21 ft 16 kts 86°
2026-05-06 02:19 22.74580 -74.17691 21 ft 5 kts 74°
2026-05-06 02:19 22.74632 -74.17661 21 ft 14 kts
2026-05-06 02:19 22.74680 -74.17710 20 ft 6 kts 264°
2026-05-06 02:20 22.74725 -74.17724 20 ft 3 kts 63°
2026-05-06 02:20 22.74725 -74.17719 20 ft 0 kts 92°